Flag for Spain Weather past 2 weeks in Pamplona, Spain

Now
54 °F

Partly sunny.


Feels Like: 49 °F
Forecast: 46 / 60 °F
Wind: 15 mph from Northwest

Location: Pamplona / Noain

Current Time: Mar 27, 2015 at 7:24:11 PM

Latest Report: Mar 27, 2015 at 6:30 PM


Visibility: N/A

Pressure: 30.33 "Hg

Humidity: 82%

Dew point: 48 °F

Location of PamplonaLocation

Historic Weather in Pamplona — Graph

°F

Pamplona temperature yesterday

Maximum temperature yesterday: 50 °F (at 6:00 PM)
Minimum temperature yesterday: 39 °F (at 12:00 AM)
Average temperature yesterday: 46 °F

Past Weeks' High & Low Weather Summary

 TemperatureHumidityPressure
High61 °F (Mar 17, 4:00 PM)100% (Mar 13, 7:30 AM)30.33 "Hg (Mar 13, 7:30 AM)
Low32 °F (Mar 14, 10:00 AM)29% (Mar 17, 4:30 PM)29.74 "Hg (Mar 23, 5:00 PM)
Average45 °F83%30.04 "Hg
* Reported Mar 12 6:00 PM — Mar 27 6:00 PM, Pamplona, Weather by CustomWeather, © 2015

Note: Actual official high and low records may vary slightly from our data, if they occured in-between our weather recording intervals... More about our weather records

Advertising

Pamplona weather history for previous 24 hours

 ConditionsComfort  
Time TempWeatherWind HumidityBarometerVisibility
6:00 PM
Fri, Mar 27
55 °FPartly sunny.16 mph72%30.33 "HgN/A
5:30 PM55 °FPartly sunny.16 mph72%30.33 "HgN/A
5:00 PM55 °FPartly sunny.20 mph72%30.33 "HgN/A
4:30 PM55 °FPartly sunny.20 mph77%30.33 "HgN/A
4:00 PM55 °FScattered clouds.23 mph72%30.33 "HgN/A
3:30 PM55 °FPassing clouds.22 mph77%30.33 "HgN/A
3:00 PM55 °FPassing clouds.21 mph72%30.33 "HgN/A
2:30 PM55 °FPassing clouds.21 mph77%30.33 "HgN/A
2:00 PM55 °FPassing clouds.21 mph72%30.33 "HgN/A
1:30 PM55 °FScattered clouds.17 mph67%30.33 "HgN/A
1:00 PM54 °FScattered clouds.14 mph72%30.33 "HgN/A
12:30 PM52 °FScattered clouds.14 mph72%30.33 "HgN/A
12:00 PM52 °FScattered clouds.13 mph72%30.33 "HgN/A
11:30 AM52 °FScattered clouds.15 mph77%30.33 "HgN/A
11:00 AM50 °FScattered clouds.15 mph76%30.33 "HgN/A
10:30 AM50 °FScattered clouds.14 mph76%30.33 "HgN/A
10:00 AM48 °FScattered clouds.15 mph76%30.33 "HgN/A
9:30 AM48 °FScattered clouds.15 mph76%30.30 "HgN/A
9:00 AM48 °FScattered clouds.17 mph76%30.30 "HgN/A
8:30 AM48 °FScattered clouds.14 mph76%30.30 "HgN/A
8:00 AM45 °FScattered clouds.8 mph87%30.27 "HgN/A
7:30 AM45 °FScattered clouds.10 mph81%30.27 "HgN/A
7:00 AM45 °FPartly sunny.13 mph87%30.27 "HgN/A
6:30 AM45 °FPassing clouds.14 mph87%30.24 "HgN/A
6:00 AM46 °FPassing clouds.16 mph82%30.24 "HgN/A
5:30 AM46 °FPassing clouds.8 mph82%30.21 "HgN/A
12:00 AM48 °FPassing clouds.9 mph87%30.18 "HgN/A
11:30 PM
Thu, Mar 26
48 °FPassing clouds.9 mph87%30.15 "HgN/A
11:00 PM48 °FPassing clouds.9 mph87%30.15 "HgN/A
10:30 PM46 °FPassing clouds.6 mph93%30.15 "HgN/A
10:00 PM48 °FPassing clouds.3 mph94%30.15 "HgN/A
9:30 PM48 °FPassing clouds.9 mph94%30.15 "HgN/A
9:00 PM48 °FPassing clouds.14 mph94%30.12 "HgN/A
8:30 PM48 °FPassing clouds.20 mph94%30.09 "HgN/A
8:00 PM50 °FPassing clouds.15 mph94%30.07 "HgN/A
7:30 PM50 °FPassing clouds.12 mph94%30.07 "HgN/A
7:00 PM50 °FBroken clouds.8 mph100%30.04 "HgN/A
Weather by CustomWeather, © 2015

See weather overviewHow to use our weather pages